DW8790 Maspalomas ES current weather conditions

sailwx.info

Wind from 089 at 10 knots gusting 17

Air temperature 23.9° C
Dewpoint 7.5° C

Last reported at 2015-Jan-26 13:50 UTC.
Time now 2015-Jan-26 14:32 UTC

Location: N 27°46' W 015°34'.
View on Google Maps.

See reports from other nearby stations

  
Tides and Currents Weather Stations Pressure Air Temp Water Temp Dewpoint Dewpoint Depression Visibility Wind Speed Wind Dir Waves Ship Positions
date/time (UTC)wind fromknots sea level pressurealtimeterstation pressurevisibilityair tempwater tempwave heightnotes
2015-Jan-26 13:50 089 10 gusting 17 23.9
2015-Jan-26 13:40 072 8 gusting 18 23.9
2015-Jan-26 13:30 096 11 gusting 20 23.9
2015-Jan-26 13:20 064 8 gusting 17 23.3
2015-Jan-26 13:10 066 11 gusting 17 23.3
2015-Jan-26 13:00 103 11 gusting 15 23.9
2015-Jan-26 12:50 093 12 gusting 17 23.3
2015-Jan-26 12:40 093 12 gusting 18 23.3
2015-Jan-26 12:30 093 10 gusting 18 23.3
2015-Jan-26 12:20 076 11 gusting 18 23.3
2015-Jan-26 12:10 096 10 gusting 19 23.3
2015-Jan-26 12:00 068 9 gusting 17 23.3
2015-Jan-26 11:50 097 11 gusting 17 23.3
2015-Jan-26 11:40 087 8 gusting 13 23.3
2015-Jan-26 11:30 088 11 gusting 17 22.8
2015-Jan-26 11:20 086 8 gusting 15 22.8
2015-Jan-26 11:10 086 10 gusting 19 22.8
2015-Jan-26 11:00 084 8 gusting 18 22.2
2015-Jan-26 10:50 092 10 gusting 15 22.2
2015-Jan-26 10:40 066 9 gusting 17 21.7
2015-Jan-26 10:30 093 9 gusting 17 21.7
2015-Jan-26 10:20 085 10 gusting 19 21.1
2015-Jan-26 10:10 081 12 gusting 19 21.1
2015-Jan-26 10:00 072 6 gusting 18 20.6
2015-Jan-26 09:50 078 8 gusting 15 20.6
2015-Jan-26 09:40 084 8 gusting 18 20.0
2015-Jan-26 09:30 082 7 gusting 11 19.4
2015-Jan-26 09:20 064 3 gusting 6 17.8
2015-Jan-26 09:10 322 0 gusting 2 16.1
2015-Jan-26 09:00 298 0 gusting 2 15.0
2015-Jan-26 08:50 288 1 gusting 2 14.4
2015-Jan-26 08:40 272 13.9
2015-Jan-26 08:30 272 1 gusting 2 13.3
2015-Jan-26 08:20 352 13.3
2015-Jan-26 08:10 033 0 gusting 2 12.8
2015-Jan-26 08:00 288 2 gusting 4 12.8
2015-Jan-26 07:50 306 2 gusting 2 13.3
2015-Jan-26 07:40 293 2 gusting 6 13.3
2015-Jan-26 07:30 310 5 gusting 6 13.9
2015-Jan-26 07:20 325 3 gusting 7 14.4
2015-Jan-26 07:10 065 2 gusting 7 14.4
2015-Jan-26 07:00 045 2 gusting 7 14.4
2015-Jan-26 06:50 012 0 gusting 5 13.9
2015-Jan-26 05:50 028 0 gusting 2 12.8
2015-Jan-26 05:40 005 0 gusting 2 12.8
2015-Jan-26 05:30 12.2
2015-Jan-26 05:20 004 0 gusting 2 12.2
2015-Jan-26 05:10 346 12.2
2015-Jan-26 05:00 321 0 gusting 2 12.2
2015-Jan-26 04:50 321 1 gusting 2 12.8
2015-Jan-26 04:40 12.8
2015-Jan-26 04:30 12.8
2015-Jan-26 04:20 296 12.8
2015-Jan-26 04:10 296 0 gusting 2 12.8
2015-Jan-26 04:00 284 1 gusting 2 12.8
2015-Jan-26 03:50 338 2 gusting 5 12.8
2015-Jan-26 03:40 345 0 gusting 2 12.8
2015-Jan-26 03:30 338 0 gusting 1 12.8
2015-Jan-26 03:20 338 13.3
2015-Jan-26 03:10 338 13.3
2015-Jan-26 03:00 338 13.3
2015-Jan-26 02:50 338 13.3
2015-Jan-26 02:40 338 13.9
2015-Jan-26 02:30 334 1 gusting 2 13.9
2015-Jan-26 02:20 339 0 gusting 1 13.9
2015-Jan-26 02:10 339 14.4
2015-Jan-26 02:00 339 15.0
2015-Jan-26 01:50 052 0 gusting 2 15.0
2015-Jan-26 01:40 035 15.6
2015-Jan-26 01:30 039 15.6
2015-Jan-26 01:20 057 1 gusting 4 16.1
2015-Jan-26 01:10 027 3 gusting 8 16.7
2015-Jan-26 01:00 024 6 gusting 10 16.7
2015-Jan-26 00:50 024 5 gusting 8 16.1
2015-Jan-26 00:40 023 5 gusting 10 16.1
2015-Jan-26 00:30 060 5 gusting 8 16.1
2015-Jan-26 00:20 076 5 gusting 7 16.1
2015-Jan-26 00:10 067 5 gusting 10 16.1
2015-Jan-26 00:00 035 5 gusting 10 16.1
2015-Jan-25 23:50 054 5 gusting 11 16.1
2015-Jan-25 23:40 074 11 gusting 14 16.1
2015-Jan-25 23:30 067 5 gusting 13 16.1
2015-Jan-25 23:20 061 6 gusting 12 16.1
2015-Jan-25 23:10 077 5 gusting 10 16.1
2015-Jan-25 23:00 074 6 gusting 10 16.1
2015-Jan-25 22:50 065 5 gusting 10 16.1
2015-Jan-25 22:40 079 5 gusting 8 16.1
2015-Jan-25 22:30 086 6 gusting 11 16.1
2015-Jan-25 22:20 081 6 gusting 8 16.1
2015-Jan-25 22:10 077 2 gusting 6 16.1
2015-Jan-25 22:00 067 2 gusting 8 16.1
2015-Jan-25 21:50 064 2 gusting 6 16.1
2015-Jan-25 21:40 055 2 gusting 6 16.1
2015-Jan-25 21:30 087 5 gusting 7 16.1
2015-Jan-25 21:20 069 4 gusting 7 16.1
2015-Jan-25 21:10 064 4 gusting 7 16.1
2015-Jan-25 21:00 084 1 gusting 6 16.7
2015-Jan-25 20:50 090 4 gusting 10 16.7
2015-Jan-25 20:40 071 6 gusting 8 16.7
2015-Jan-25 20:30 081 6 gusting 10 16.7
2015-Jan-25 20:20 069 5 gusting 11 16.7
2015-Jan-25 20:10 075 7 gusting 13 16.7
2015-Jan-25 20:00 090 7 gusting 12 16.7
2015-Jan-25 19:50 076 6 gusting 12 16.7
2015-Jan-25 19:40 072 7 gusting 13 16.7
2015-Jan-25 19:30 079 7 gusting 13 16.7
2015-Jan-25 19:20 082 9 gusting 13 17.2
2015-Jan-25 19:10 076 6 gusting 11 17.2
2015-Jan-25 19:00 076 7 gusting 13 17.2
2015-Jan-25 18:50 050 5 gusting 12 17.2
2015-Jan-25 18:40 066 7 gusting 14 17.2
2015-Jan-25 18:30 065 6 gusting 13 17.8
2015-Jan-25 18:20 071 7 gusting 14 17.8
2015-Jan-25 18:10 078 11 gusting 15 17.8
2015-Jan-25 18:00 071 11 gusting 15 18.3
2015-Jan-25 17:50 063 7 gusting 15 18.3
2015-Jan-25 17:40 067 10 gusting 15 17.8
2015-Jan-25 17:30 067 7 gusting 17 17.8
2015-Jan-25 17:20 074 13 gusting 21 18.3
2015-Jan-25 17:10 081 12 gusting 20 18.3
2015-Jan-25 17:00 090 13 gusting 19 18.9
2015-Jan-25 16:50 080 10 gusting 18 18.9
2015-Jan-25 16:40 079 11 gusting 17 18.9
2015-Jan-25 16:30 069 11 gusting 18 18.9
2015-Jan-25 16:20 071 11 gusting 21 18.9
2015-Jan-25 16:10 045 5 gusting 11 18.9
2015-Jan-25 16:00 040 5 gusting 10 18.9
2015-Jan-25 15:50 047 4 gusting 6 18.9
2015-Jan-25 15:40 184 0 gusting 10 18.9
2015-Jan-25 15:30 279 6 gusting 7 18.9
2015-Jan-25 15:20 255 5 gusting 8 18.9
2015-Jan-25 15:10 183 4 gusting 8 18.9
2015-Jan-25 15:00 226 5 gusting 10 18.9
2015-Jan-25 14:50 241 5 gusting 10 19.4
2015-Jan-25 14:40 223 6 gusting 10 18.9
2015-Jan-25 14:30 238 3 gusting 10 18.9
2015-Jan-25 14:20 232 3 gusting 6 18.9
2015-Jan-25 14:10 244 4 gusting 10 18.9
2015-Jan-25 14:00 224 6 gusting 10 18.9
2015-Jan-25 13:50 252 6 gusting 10 18.9
2015-Jan-25 13:40 244 4 gusting 10 18.9
2015-Jan-25 13:30 247 5 gusting 11 19.4
2015-Jan-25 13:20 277 4 gusting 13 19.4
2015-Jan-25 13:10 282 4 gusting 11 20.0
2015-Jan-25 13:00 262 6 gusting 11 19.4
2015-Jan-25 12:50 231 3 gusting 8 19.4
2015-Jan-25 12:40 245 3 gusting 8 19.4
2015-Jan-25 12:30 269 4 gusting 12 19.4
2015-Jan-25 12:20 264 6 gusting 11 20.0
2015-Jan-25 12:10 277 6 gusting 13 20.0
2015-Jan-25 12:00 270 8 gusting 18 20.0
2015-Jan-25 11:50 277 12 gusting 20 20.6
2015-Jan-25 11:40 124 8 gusting 18 21.7
2015-Jan-25 11:30 093 7 gusting 13 21.1
2015-Jan-25 11:20 155 2 gusting 7 20.6
2015-Jan-25 11:10 260 1 gusting 6 20.0
2015-Jan-25 11:00 300 3 gusting 8 20.0
2015-Jan-25 10:50 279 4 gusting 8 20.6
2015-Jan-25 10:40 298 4 gusting 6 20.0
2015-Jan-25 10:30 295 3 gusting 8 20.6
2015-Jan-25 10:20 130 0 gusting 6 20.6
2015-Jan-25 10:10 330 4 gusting 6 20.6
2015-Jan-25 10:00 098 1 gusting 6 20.0
2015-Jan-25 09:50 051 2 gusting 7 20.0
2015-Jan-25 09:40 064 19.4
2015-Jan-25 09:30 344 1 gusting 2 18.9
2015-Jan-25 09:20 057 1 gusting 8 18.3
2015-Jan-25 09:10 053 5 gusting 10 18.3
2015-Jan-25 09:00 082 7 gusting 12 17.8
2015-Jan-25 08:50 066 5 gusting 8 16.7
2015-Jan-25 08:40 065 4 gusting 6 16.1
2015-Jan-25 08:30 036 0 gusting 2 15.6
2015-Jan-25 08:20 005 1 gusting 2 15.0
2015-Jan-25 08:10 348 1 gusting 5 15.0
2015-Jan-25 08:00 356 3 gusting 6 15.0
2015-Jan-25 07:50 356 4 gusting 6 15.0
2015-Jan-25 07:40 346 2 gusting 5 15.0
2015-Jan-25 07:30 319 3 gusting 6 15.0
2015-Jan-25 07:20 304 2 gusting 4 15.0
2015-Jan-25 07:10 087 1 gusting 6 15.0
2015-Jan-25 07:00 074 0 gusting 2 15.0
2015-Jan-25 06:50 015 15.0
2015-Jan-25 06:40 037 15.0
2015-Jan-25 06:30 350 4 gusting 6 15.0
2015-Jan-25 06:20 340 6 gusting 10 15.0
2015-Jan-25 06:10 332 6 gusting 8 15.6
2015-Jan-25 06:00 349 4 gusting 10 15.0
2015-Jan-25 05:50 335 7 gusting 10 15.0
2015-Jan-25 05:40 318 5 gusting 6 15.0
2015-Jan-25 05:30 278 1 gusting 2 15.0
2015-Jan-25 05:20 005 0 gusting 4 15.0
2015-Jan-25 05:10 350 2 gusting 5 15.0
2015-Jan-25 05:00 349 2 gusting 5 15.0
2015-Jan-25 04:50 355 2 gusting 4 15.0
2015-Jan-25 04:40 343 1 gusting 2 14.4
2015-Jan-25 04:30 317 1 gusting 2 14.4
2015-Jan-25 04:20 297 0 gusting 2 14.4
2015-Jan-25 04:10 279 1 gusting 2 14.4
2015-Jan-25 04:00 323 14.4
2015-Jan-25 03:50 323 1 gusting 2 15.0
2015-Jan-25 03:40 005 14.4
2015-Jan-25 03:30 005 0 gusting 5 15.0
2015-Jan-25 03:20 008 4 gusting 6 15.0
2015-Jan-25 03:10 358 3 gusting 6 15.0
2015-Jan-25 03:00 349 3 gusting 6 15.0
2015-Jan-25 02:50 350 5 gusting 6 15.0
2015-Jan-25 02:40 343 4 gusting 7 15.6
2015-Jan-25 02:30 337 4 gusting 6 15.6
2015-Jan-25 02:20 338 1 gusting 7 15.6
2015-Jan-25 02:10 032 2 gusting 7 15.6
2015-Jan-25 02:00 348 2 gusting 6 15.6
2015-Jan-25 01:50 329 2 gusting 6 16.1
2015-Jan-25 01:40 086 5 gusting 10 16.1
2015-Jan-25 01:30 094 7 gusting 11 16.1
2015-Jan-25 01:20 054 4 gusting 7 16.1
2015-Jan-25 01:10 059 4 gusting 7 16.1
2015-Jan-25 01:00 048 4 gusting 7 16.1
2015-Jan-25 00:50 052 2 gusting 7 16.1
2015-Jan-25 00:40 042 1 gusting 5 16.1
2015-Jan-25 00:30 038 1 gusting 8 16.1
2015-Jan-25 00:20 049 3 gusting 7 16.1
2015-Jan-25 00:10 041 3 gusting 6 16.1
2015-Jan-25 00:00 063 1 gusting 6 16.1
2015-Jan-24 23:50 058 1 gusting 7 16.1
2015-Jan-24 23:40 059 2 gusting 5 16.1
2015-Jan-24 23:30 043 1 gusting 6 16.7
2015-Jan-24 23:20 046 3 gusting 8 16.7
2015-Jan-24 23:10 030 2 gusting 8 16.1
2015-Jan-24 23:00 057 5 gusting 8 16.1
2015-Jan-24 22:50 016 15.6
2015-Jan-24 22:40 021 1 gusting 2 15.6
2015-Jan-24 22:30 021 16.1
2015-Jan-24 22:20 021 16.1
2015-Jan-24 22:10 069 0 gusting 2 16.1
2015-Jan-24 22:00 355 16.1
2015-Jan-24 21:50 355 1 gusting 2 16.1
2015-Jan-24 21:30 025 1 gusting 2 16.7
2015-Jan-24 21:20 056 2 gusting 6 17.2
2015-Jan-24 21:10 043 2 gusting 4 17.2
2015-Jan-24 21:00 044 0 gusting 5 17.2
2015-Jan-24 20:50 047 0 gusting 7 17.2
2015-Jan-24 20:40 066 4 gusting 7 17.2
2015-Jan-24 20:30 069 4 gusting 6 16.7
2015-Jan-24 20:20 096 1 gusting 2 16.7
2015-Jan-24 20:10 309 16.7
2015-Jan-24 20:00 309 17.2
2015-Jan-24 19:50 309 17.2
2015-Jan-24 19:40 309 17.2
2015-Jan-24 19:30 309 0 gusting 2 17.8
2015-Jan-24 19:20 343 0 gusting 2 17.8
2015-Jan-24 19:10 319 0 gusting 2 17.8
2015-Jan-24 19:00 309 0 gusting 4 17.8
2015-Jan-24 18:50 282 2 gusting 6 18.3
2015-Jan-24 18:40 299 4 gusting 6 18.3
2015-Jan-24 18:30 276 1 gusting 11 18.9
2015-Jan-24 18:20 073 7 gusting 12 18.9
2015-Jan-24 18:10 067 7 gusting 11 18.9
2015-Jan-24 18:00 082 2 gusting 10 19.4
2015-Jan-24 17:50 043 5 gusting 10 20.0
2015-Jan-24 17:40 309 5 gusting 17 20.0
2015-Jan-24 17:30 077 5 gusting 18 20.0
2015-Jan-24 17:20 102 4 gusting 6 21.1
2015-Jan-24 17:10 031 1 gusting 18 21.1
2015-Jan-24 17:00 092 3 gusting 10 21.1
2015-Jan-24 16:50 284 2 gusting 7 21.1
2015-Jan-24 16:40 275 4 gusting 7 21.1
2015-Jan-24 16:30 252 1 gusting 6 20.6
2015-Jan-24 16:20 217 0 gusting 4 20.0
2015-Jan-24 16:10 274 4 gusting 12 20.0
2015-Jan-24 16:00 270 7 gusting 13 20.0
2015-Jan-24 15:50 259 7 gusting 12 20.0
2015-Jan-24 15:40 267 6 gusting 11 21.1
2015-Jan-24 15:30 265 8 gusting 13 20.6
2015-Jan-24 15:20 258 5 gusting 11 20.6
2015-Jan-24 15:10 233 6 gusting 11 20.6
2015-Jan-24 15:00 254 6 gusting 11 20.6
2015-Jan-24 14:50 235 7 gusting 13 20.6
2015-Jan-24 14:40 247 5 gusting 10 20.6
2015-Jan-24 14:30 245 4 gusting 12 20.6
2015-Jan-24 14:20 233 6 gusting 11 20.6
2015-Jan-24 14:10 265 7 gusting 12 20.0
2015-Jan-24 14:00 251 8 gusting 13 20.0